Location: Clarkson Observatory
(44.6781°N, 74.9517°W)
Time: 15:51:59
(UTC-05:00)

OTV 5 (USA 277) - Visible Passes

Search period start: 20 January 2018 00:00
Search period end: 30 January 2018 00:00
Orbit: 404 x 417 km, 43.0° (Epoch: 07 September)

Date Brightness Start Highest point End Pass type
(mag) Time Alt. Az. Time Alt. Az. Time Alt. Az.
22 Jan ? 18:43:18 10° SSW 18:44:58 17° SSE 18:44:58 17° SSE visible
23 Jan ? 17:53:15 10° S 17:54:44 12° SSE 17:56:13 10° ESE visible
23 Jan ? 19:28:18 10° SW 19:29:15 17° SW 19:29:15 17° SW visible
24 Jan ? 18:37:28 10° SW 18:40:31 31° SSE 18:40:43 31° SSE visible
25 Jan ? 17:46:47 10° SSW 17:49:34 24° SSE 17:52:08 11° E visible
25 Jan ? 19:23:13 10° WSW 19:24:54 26° WSW 19:24:54 26° WSW visible
26 Jan ? 18:32:15 10° WSW 18:35:32 50° SSE 18:36:18 40° ESE visible
27 Jan ? 17:41:20 10° SW 17:44:31 41° SSE 17:47:40 10° E visible
27 Jan ? 19:18:18 10° W 19:20:26 35° WSW 19:20:26 35° WSW visible
28 Jan ? 18:27:16 10° WSW 18:30:37 65° S 18:31:49 36° ESE visible
28 Jan ? 20:04:32 10° W 20:04:34 10° W 20:04:34 10° W visible
29 Jan ? 17:36:15 10° WSW 17:39:34 59° S 17:42:55 10° E visible
29 Jan ? 19:13:27 10° W 19:15:58 42° WSW 19:15:58 42° WSW visible
